WB4FAY-4 Weather Reports


time (UTC)temp
C
wind
direction
speed
KPH
gust
KPH
rain 1hr
cm
rain 24hr
cm
rain mn
cm
humidity
%
barometer
mb
20260504040017 12 0 0.0 0.0 0.00 0.00 0.00 76 1019.6
20260504035518 12 0 0.0 0.0 0.00 0.00 0.00 77 1019.6
20260504035017 12 0 0.0 0.0 0.00 0.00 0.00 76 1019.7
20260504034517 12 0 0.0 0.0 0.00 0.00 0.00 76 1019.7
20260504034017 13 0 0.0 0.0 0.00 0.00 0.00 76 1019.7
20260504033517 13 0 0.0 0.0 0.00 0.00 0.00 76 1019.7
20260504033017 13 0 0.0 0.0 0.00 0.00 0.00 76 1019.8
20260504032517 13 0 0.0 0.0 0.00 0.00 0.00 76 1019.8
20260504032017 13 0 0.0 0.0 0.00 0.00 0.00 75 1019.8
20260504031517 13 0 0.0 0.0 0.00 0.00 0.00 75 1019.8
20260504031017 13 0 0.0 0.0 0.00 0.00 0.00 75 1019.8
20260504030517 13 0 0.0 0.0 0.00 0.00 0.00 74 1019.8
20260504030017 13 0 0.0 0.0 0.00 0.00 0.00 74 1019.8
20260504025517 13 0 0.0 0.0 0.00 0.00 0.00 74 1019.7
20260504025017 13 0 0.0 0.0 0.00 0.00 0.00 73 1019.6
20260504024517 13 0 0.0 0.0 0.00 0.00 0.00 73 1019.6
20260504024017 13 0 0.0 0.0 0.00 0.00 0.00 73 1019.5
20260504023517 13 0 0.0 0.0 0.00 0.00 0.00 72 1019.4
20260504023017 14 0 0.0 0.0 0.00 0.00 0.00 72 1019.4
20260504022517 14 0 0.0 0.0 0.00 0.00 0.00 71 1019.3
20260504022017 14 0 0.0 0.0 0.00 0.00 0.00 70 1019.3
20260504021516 14 0 0.0 0.0 0.00 0.00 0.00 70 1019.2
20260504021017 14 0 0.0 0.0 0.00 0.00 0.00 69 1019.2
20260504020517 15 0 0.0 0.0 0.00 0.00 0.00 68 1019.2
20260504020017 15 0 0.0 0.0 0.00 0.00 0.00 68 1019.2
20260504015517 15 0 0.0 0.0 0.00 0.00 0.00 67 1019.1
20260504015017 15 0 0.0 0.0 0.00 0.00 0.00 67 1019.1
20260504014517 15 0 0.0 0.0 0.00 0.00 0.00 66 1019.1
20260504014017 15 0 0.0 0.0 0.00 0.00 0.00 66 1019.2
20260504013522 15 0 0.0 0.0 0.00 0.00 0.00 64 1019.0
20260504013018 16 0 0.0 0.0 0.00 0.00 0.00 63 1018.9
20260504012517 16 0 0.0 0.0 0.00 0.00 0.00 62 1018.8
20260504012017 16 0 0.0 0.0 0.00 0.00 0.00 63 1018.7
20260504011517 16 0 0.0 0.0 0.00 0.00 0.00 61 1018.8
20260504011017 16 0 0.0 0.0 0.00 0.00 0.00 60 1018.8
20260504010517 16 0 0.0 0.0 0.00 0.00 0.00 60 1018.8
20260504010017 16 0 0.0 0.0 0.00 0.00 0.00 57 1018.6
20260504005517 17 0 0.0 0.0 0.00 0.00 0.00 57 1018.6
20260504005017 17 0 0.0 0.0 0.00 0.00 0.00 56 1018.5
20260504004517 17 0 0.0 0.0 0.00 0.00 0.00 54 1018.5
20260504004017 17 0 0.0 0.0 0.00 0.00 0.00 53 1018.4
20260504003517 18 0 0.0 0.0 0.00 0.00 0.00 54 1018.4
20260504003017 18 0 0.0 0.0 0.00 0.00 0.00 51 1018.3
20260504002517 18 0 0.0 0.0 0.00 0.00 0.00 50 1018.3
20260504002017 18 0 0.0 0.0 0.00 0.00 0.00 49 1018.3
20260504001517 18 0 0.0 0.0 0.00 0.00 0.00 49 1018.3
20260504001017 18 0 0.0 0.0 0.00 0.00 0.00 47 1018.3
20260504000517 19 0 0.0 0.0 0.00 0.00 0.00 48 1018.3
20260504000017 19 0 0.0 0.0 0.00 0.00 0.00 46 1018.3
20260503235517 19 0 0.0 0.0 0.00 0.00 0.00 45 1018.3
20260503235016 20 0 0.0 0.0 0.00 0.00 0.00 47 1018.3
20260503234517 20 0 0.0 0.0 0.00 0.00 0.00 45 1018.2
20260503234017 20 0 0.0 0.0 0.00 0.00 0.00 43 1018.2
20260503233517 20 0 0.0 0.0 0.00 0.00 0.00 43 1018.2
20260503233017 20 0 0.0 0.0 0.00 0.00 0.00 42 1018.2
20260503232517 20 0 0.0 0.0 0.00 0.00 0.00 41 1018.1
20260503232016 20 0 0.0 0.0 0.00 0.00 0.00 40 1018.2
20260503231517 20 0 0.0 0.0 0.00 0.00 0.00 39 1018.2
20260503231017 20 325 0.0 8.0 0.00 0.00 0.00 39 1018.3
20260503230517 21 330 0.0 4.8 0.00 0.00 0.00 39 1018.3
20260503230017 21 332 3.2 9.7 0.00 0.00 0.00 37 1018.3
20260503225517 21 18 0.0 9.7 0.00 0.00 0.00 37 1018.3
20260503225017 21 319 3.2 9.7 0.00 0.00 0.00 35 1018.3
20260503224517 22 313 0.0 8.0 0.00 0.00 0.00 34 1018.4
20260503224017 22 330 1.6 8.0 0.00 0.00 0.00 34 1018.5
20260503223517 22 268 0.0 8.0 0.00 0.00 0.00 36 1018.4
20260503223017 22 270 0.0 8.0 0.00 0.00 0.00 35 1018.4
20260503222517 22 284 6.4 8.0 0.00 0.00 0.00 37 1018.5
20260503222017 22 339 0.0 9.7 0.00 0.00 0.00 37 1018.5
20260503221518 22 339 3.2 14.5 0.00 0.00 0.00 35 1018.6
20260503221017 22 309 0.0 9.7 0.00 0.00 0.00 37 1018.6
20260503220517 22 16 4.8 8.0 0.00 0.00 0.00 34 1018.6
20260503220017 22 257 0.0 14.5 0.00 0.00 0.00 33 1018.7
20260503215518 22 330 0.0 6.4 0.00 0.00 0.00 34 1018.6
20260503215017 22 352 6.4 9.7 0.00 0.00 0.00 34 1018.7
20260503214517 22 311 8.0 14.5 0.00 0.00 0.00 32 1018.8
20260503214017 22 332 3.2 14.5 0.00 0.00 0.00 33 1018.8
20260503213517 22 328 8.0 12.9 0.00 0.00 0.00 34 1018.8
20260503213017 23 335 8.0 12.9 0.00 0.00 0.00 33 1019.0
20260503212517 23 179 3.2 9.7 0.00 0.00 0.00 35 1019.0
20260503212017 22 277 3.2 9.7 0.00 0.00 0.00 35 1019.0
20260503211517 22 356 1.6 9.7 0.00 0.00 0.00 35 1019.1
20260503211017 22 347 8.0 9.7 0.00 0.00 0.00 35 1019.3
20260503210518 22 347 6.4 9.7 0.00 0.00 0.00 34 1019.3
20260503210017 22 8 3.2 14.5 0.00 0.00 0.00 33 1019.4
20260503205517 22 292 11.3 8.0 0.00 0.00 0.00 35 1019.3
20260503205017 22 251 4.8 14.5 0.00 0.00 0.00 36 1019.4
20260503204517 22 3 1.6 16.1 0.00 0.00 0.00 36 1019.5
20260503204017 22 329 3.2 12.9 0.00 0.00 0.00 36 1019.7
20260503203517 22 326 6.4 17.7 0.00 0.00 0.00 36 1019.7
20260503203018 22 145 3.2 6.4 0.00 0.00 0.00 36 1019.8
20260503202517 21 302 6.4 14.5 0.00 0.00 0.00 36 1020.0
20260503202017 21 7 8.0 14.5 0.00 0.00 0.00 37 1020.0
20260503201517 21 350 6.4 17.7 0.00 0.00 0.00 37 1020.1
20260503201018 21 8 4.8 12.9 0.00 0.00 0.00 37 1020.2
20260503200517 21 319 4.8 12.9 0.00 0.00 0.00 38 1020.3
20260503200017 21 58 8.0 16.1 0.00 0.00 0.00 39 1020.3
20260503195517 21 357 8.0 14.5 0.00 0.00 0.00 39 1020.4
20260503195017 21 6 6.4 16.1 0.00 0.00 0.00 39 1020.5
20260503194517 21 8 3.2 9.7 0.00 0.00 0.00 39 1020.6
20260503194017 21 295 1.6 8.0 0.00 0.00 0.00 39 1020.8
20260503193517 21 346 0.0 8.0 0.00 0.00 0.00 40 1020.9
20260503193017 21 360 3.2 11.3 0.00 0.00 0.00 41 1021.0
20260503192517 21 89 3.2 12.9 0.00 0.00 0.00 41 1020.9
20260503192017 20 343 11.3 12.9 0.00 0.00 0.00 40 1021.0
20260503191517 20 298 3.2 9.7 0.00 0.00 0.00 41 1021.1
20260503191017 20 85 3.2 8.0 0.00 0.00 0.00 42 1021.3
20260503190517 20 4 4.8 9.7 0.00 0.00 0.00 41 1021.3
20260503190018 20 109 4.8 8.0 0.00 0.00 0.00 41 1021.5
20260503185517 20 356 4.8 16.1 0.00 0.00 0.00 40 1021.5
20260503185017 20 3 12.9 14.5 0.00 0.00 0.00 39 1021.8
20260503184517 20 352 4.8 19.3 0.00 0.00 0.00 39 1021.8
20260503184017 20 360 6.4 14.5 0.00 0.00 0.00 38 1021.9
20260503183518 20 301 12.9 11.3 0.00 0.00 0.00 38 1021.9
20260503183017 20 42 3.2 20.9 0.00 0.00 0.00 39 1022.0
20260503182517 20 3 6.4 16.1 0.00 0.00 0.00 38 1022.1
20260503182017 20 335 3.2 12.9 0.00 0.00 0.00 40 1022.2
20260503181517 20 92 3.2 17.7 0.00 0.00 0.00 38 1022.1
20260503181018 20 328 4.8 17.7 0.00 0.00 0.00 40 1022.2
20260503180517 20 340 14.5 17.7 0.00 0.00 0.00 41 1022.3
20260503180017 19 75 3.2 8.0 0.00 0.00 0.00 42 1022.3
20260503175517 19 319 3.2 14.5 0.00 0.00 0.00 41 1022.4
20260503175017 20 160 9.7 9.7 0.00 0.00 0.00 40 1022.4
20260503174517 19 25 3.2 11.3 0.00 0.00 0.00 39 1022.5
20260503174017 20 353 6.4 14.5 0.00 0.00 0.00 41 1022.5
20260503173518 19 24 1.6 12.9 0.00 0.00 0.00 41 1022.5
20260503173017 19 359 3.2 14.5 0.00 0.00 0.00 40 1022.5
20260503172517 19 212 9.7 12.9 0.00 0.00 0.00 42 1022.6
20260503172017 18 347 8.0 12.9 0.00 0.00 0.00 41 1022.6
20260503171517 18 48 3.2 6.4 0.00 0.00 0.00 42 1022.7
20260503171017 18 295 4.8 11.3 0.00 0.00 0.00 43 1022.8
20260503170518 18 309 3.2 11.3 0.00 0.00 0.00 40 1022.9
20260503150517 16 17 3.2 9.7 0.00 0.00 0.00 59 1023.3
20260503131017 11 56 0.0 9.7 0.00 0.00 0.00 83 1022.9
20260503130517 11 134 0.0 9.7 0.00 0.00 0.00 85 1023.0
20260503110517 8 0 0.0 0.0 0.00 0.00 0.00 90 1021.7
20260503081517 11 0 0.0 0.0 0.00 0.00 0.00 73 1020.5
20260503081018 11 0 0.0 0.0 0.00 0.00 0.00 72 1020.5
20260503080522 12 0 0.0 0.0 0.00 0.00 0.00 71 1020.5
20260503072518 12 0 0.0 0.0 0.00 0.00 0.00 67 1020.2
20260503072017 12 0 0.0 0.0 0.00 0.00 0.00 66 1020.2
20260503071517 12 134 0.0 4.8 0.00 0.00 0.00 66 1020.1
20260503071017 12 158 0.0 3.2 0.00 0.00 0.00 66 1020.1
20260503070517 13 72 0.0 6.4 0.00 0.00 0.00 65 1020.1
20260503055017 14 32 9.7 11.3 0.00 0.00 0.00 62 1019.9
20260503054517 14 329 1.6 16.1 0.00 0.00 0.00 61 1019.9
20260503054017 14 315 1.6 11.3 0.00 0.00 0.00 61 1019.8
20260503053518 14 72 3.2 9.7 0.00 0.00 0.00 62 1019.8
20260503053017 13 332 0.0 17.7 0.00 0.00 0.00 62 1019.8
20260503052517 13 18 0.0 16.1 0.00 0.00 0.00 65 1019.7
20260503052017 12 347 4.8 20.9 0.00 0.00 0.00 67 1019.7
20260503051517 12 35 6.4 11.3 0.00 0.00 0.00 72 1019.6
20260503051018 12 0 0.0 0.0 0.00 0.00 0.00 73 1019.5
20260503050518 12 0 0.0 0.0 0.00 0.00 0.00 72 1019.3
20260503050017 12 0 0.0 0.0 0.00 0.00 0.00 72 1019.3
20260503045518 12 0 0.0 0.0 0.00 0.00 0.00 72 1019.2
20260503045017 12 0 0.0 0.0 0.00 0.00 0.00 72 1019.1
20260503044517 12 0 0.0 0.0 0.00 0.00 0.00 72 1019.1
20260503044017 12 0 0.0 0.0 0.00 0.00 0.00 72 1019.0
20260503043517 12 0 0.0 0.0 0.00 0.00 0.00 71 1019.0
20260503043017 12 0 0.0 0.0 0.00 0.00 0.00 71 1019.0
20260503042517 12 0 0.0 0.0 0.00 0.00 0.00 71 1019.0
20260503042017 12 0 0.0 0.0 0.00 0.00 0.00 71 1019.0
20260503041517 12 0 0.0 0.0 0.00 0.00 0.00 71 1019.0
20260503041018 12 0 0.0 0.0 0.00 0.00 0.00 71 1019.0
20260503040517 12 0 0.0 0.0 0.00 0.00 0.00 71 1018.8